Dubuque, IA

6:51 AM CST on November 20, 2017 (GMT -0600)
Dubuque Regional

Weather History for KDBQ - September, 2013

Change the Weather History Date:

Saturday, September 28, 2013

  Actual Average Record
Temperature  
Mean Temperature 64 °F 57 °F  
Max Temperature 76 °F 68 °F 91 °F (1952)
Min Temperature 51 °F 46 °F 29 °F (1942)
Degree Days  
Heating Degree Days 1 9  
Month to date heating degree days 90 133  
Since 1 July heating degree days 122 160  
Cooling Degree Days 0 1  
Month to date cooling degree days 96 60  
Year to date cooling degree days 632 636  
Growing Degree Days 13 (Base 50)    
Moisture  
Dew Point 58 °F    
Average Humidity 80    
Maximum Humidity 100    
Minimum Humidity 60    
Precipitation  
Precipitation 0.31 in 0.10 in 1.74 in (1972)
Month to date precipitation 2.37 3.27  
Year to date precipitation 33.06 29.25  
Snow  
Snow 0.00 in 0.00 in - ()
Month to date snowfall 0.0 0.0  
Since 1 July snowfall 0.0 0.0  
Since 1 September snowfall 0.0 0.0  
Snow Depth 0.00 in    
Sea Level Pressure  
Sea Level Pressure 29.92 in    
Wind  
Wind Speed 13 mph (SSW)    
Max Wind Speed 29 mph    
Max Gust Speed 35 mph    
Visibility 8 miles    
Events Rain    
T = Trace of Precipitation, MM = Missing Value Source: NWS Daily Summary

Daily Weather History Graph

Daily Weather History Graph

Search for Another Location

Airport or City:

Trip Planner

Search our weather history database for the weather conditions in past years. The results will help you decide how hot, cold, wet, or windy it might be!

Date:

Astronomy

Sep. 28, 2013 Rise Set
Actual Time 6:56 AM CDT 6:49 PM CDT
Civil Twilight 6:28 AM CDT 7:17 PM CDT
Nautical Twilight 5:56 AM CDT 7:49 PM CDT
Astronomical Twilight 5:23 AM CDT 8:22 PM CDT
Moon 12:38 AM CDT (9/28) 3:13 PM CDT (9/28)
Length of Visible Light 12h 48m
Length of Day
11h 52m
Waning Crescent, 36% of the Moon is Illuminated
Sep 28
Waning Crescent
Oct 4
New
Oct 11
First Quarter
Oct 18
Full
Oct 26
Last Quarter

Hourly Weather History & Observations

Time (CDT) Temp. Dew Point Humidity Pressure Visibility Wind Dir Wind Speed Gust Speed Precip Events Conditions
12:53 AM 61.0 °F 48.9 °F 64% 29.99 in 10.0 mi SSE 11.5 mph - N/A   Clear
1:53 AM 61.0 °F 50.0 °F 67% 29.99 in 10.0 mi SSE 12.7 mph - N/A   Clear
2:53 AM 61.0 °F 52.0 °F 72% 29.96 in 10.0 mi SSE 12.7 mph - N/A   Clear
3:53 AM 61.0 °F 53.1 °F 75% 29.95 in 10.0 mi SSE 13.8 mph - N/A   Partly Cloudy
4:53 AM 60.1 °F 53.1 °F 78% 29.96 in 10.0 mi SSE 11.5 mph - N/A   Mostly Cloudy
5:53 AM 59.0 °F 53.1 °F 81% 29.96 in 10.0 mi SSE 11.5 mph - N/A   Partly Cloudy
6:53 AM 60.1 °F 54.0 °F 80% 29.96 in 10.0 mi SSE 12.7 mph - N/A   Mostly Cloudy
7:53 AM 62.1 °F 54.0 °F 75% 29.96 in 10.0 mi South 13.8 mph - N/A   Overcast
8:53 AM 64.0 °F 55.0 °F 73% 29.94 in 10.0 mi South 15.0 mph 23.0 mph N/A   Clear
9:53 AM 69.1 °F 57.9 °F 68% 29.93 in 10.0 mi South 19.6 mph 25.3 mph N/A   Clear
10:53 AM 73.0 °F 60.1 °F 64% 29.90 in 10.0 mi SSE 19.6 mph - N/A   Clear
11:53 AM 75.9 °F 61.0 °F 60% 29.87 in 10.0 mi South 23.0 mph 34.5 mph N/A   Mostly Cloudy
12:53 PM 75.0 °F 61.0 °F 62% 29.85 in 10.0 mi South 19.6 mph 28.8 mph N/A   Overcast
1:53 PM 70.0 °F 64.0 °F 81% 29.86 in 3.0 mi SSW 16.1 mph - 0.01 in Rain Heavy Rain
1:55 PM 69.8 °F 64.4 °F 83% 29.87 in 2.5 mi SSW 16.1 mph - 0.02 in Rain Heavy Rain
2:07 PM 69.8 °F 64.4 °F 83% 29.87 in 4.0 mi SSW 15.0 mph - 0.06 in Rain Rain
2:53 PM 66.9 °F 66.0 °F 97% 29.86 in 5.0 mi SSW 16.1 mph 24.2 mph 0.12 in Rain Light Rain
3:26 PM 66.2 °F 66.2 °F 100% 29.86 in 5.0 mi SSW 17.3 mph 24.2 mph 0.02 in Rain Light Rain
3:53 PM 66.9 °F 66.0 °F 97% 29.85 in 4.0 mi SSW 18.4 mph - 0.03 in Rain Rain
4:08 PM 66.2 °F 66.2 °F 100% 29.86 in 1.8 mi SSW 16.1 mph 26.5 mph 0.03 in Rain Rain
4:16 PM 66.2 °F 66.2 °F 100% 29.86 in 2.0 mi SSW 15.0 mph - 0.05 in Rain Light Rain
4:46 PM 66.2 °F 66.2 °F 100% 29.86 in 3.0 mi SSW 17.3 mph 23.0 mph 0.09 in Rain Light Rain
4:53 PM 66.9 °F 66.9 °F 100% 29.85 in 5.0 mi SSW 16.1 mph 23.0 mph 0.09 in Rain Light Rain
5:06 PM 62.6 °F 60.8 °F 94% 29.89 in 2.5 mi WNW 12.7 mph 23.0 mph 0.02 in Rain Heavy Rain
5:16 PM 60.8 °F 60.8 °F 100% 29.89 in 7.0 mi WNW 16.1 mph - 0.03 in Rain Light Rain
5:53 PM 59.0 °F 59.0 °F 100% 29.92 in 6.0 mi WNW 11.5 mph - 0.04 in   Overcast
6:53 PM 57.0 °F 55.9 °F 96% 29.94 in 6.0 mi WNW 10.4 mph - 0.00 in Rain Light Rain
7:44 PM 55.4 °F 55.4 °F 100% 29.95 in 10.0 mi WNW 10.4 mph - 0.02 in   Overcast
7:53 PM 55.9 °F 55.0 °F 97% 29.96 in 5.0 mi WNW 12.7 mph - 0.02 in   Overcast
8:00 PM 55.4 °F 55.4 °F 100% 29.96 in 3.0 mi NW 9.2 mph - N/A   Overcast
8:20 PM 55.4 °F 55.4 °F 100% 29.96 in 10.0 mi NW 5.8 mph - N/A   Mostly Cloudy
8:31 PM 55.4 °F 55.4 °F 100% 29.96 in 10.0 mi NW 6.9 mph - N/A   Scattered Clouds
8:53 PM 55.0 °F 55.0 °F 100% 29.98 in 10.0 mi NW 4.6 mph - N/A   Overcast
9:53 PM 54.0 °F 54.0 °F 100% 29.99 in 10.0 mi Calm Calm - N/A   Clear
10:53 PM 51.1 °F 51.1 °F 100% 30.01 in 10.0 mi West 4.6 mph - N/A   Clear
11:53 PM 51.1 °F 51.1 °F 100% 30.01 in 10.0 mi West 3.5 mph - N/A   Clear